User: anonymous   Login
Location: New Mesquite
(33.1168°N, 96.4336°W)
Time: 01:02:39
(UTC+00:00)
Language:

Cosmos 1812 - Orbit

View from above orbital plane
View from above orbital plane
View from above satellite
View from above satellite

Ground track
Ground track

The orbit data is extracted from the following two-line orbital elements,

1 17295U 87003A   22140.53581577  .00005604  00000-0  27814-3 0  9992
2 17295  82.5127 173.0966 0003765  45.5695 314.5846 15.17505932931066
Epoch (UTC): 20 May 2022 12:51:34
Eccentricity: 0.0003765
inclination: 82.5127°
perigee height: 511 km
apogee height: 516 km
right ascension of ascending node: 173.0966°
argument of perigee: 45.5695°
revolutions per day: 15.17505932
mean anomaly at epoch: 314.5846°
orbit number at epoch: 93106

The dashed part of the orbit path shows where the satellite is in the earth's shadow,  

DLR